Location: Goll?ig?dem
(16.6773°N, 80.7332°E)
Time: 21:49:16
(UTC+00:00)

Cosmos 2237 Rocket - Pass Details

Date: 19 May 2025
Orbit: 834 x 849 km, 71.0° (Epoch: 18 June)

Event Time Altitude Azimuth Distance (km) Brightness Sun altitude
Rises 22:12:05 0° 332° (NNW) 3,390 5.4 -25.0°
Reaches altitude 10° 22:14:37 10° 326° (NNW) 2,457 4.6 -24.5°
Enters shadow 22:18:03 33° 300° (WNW) 1,391 3.1 -23.8°
